Temperature
3 3 3 3 2 2 2 2 2 2 2 2 2 2 2 2 2 2 3 3 3 3 3 4 4 4 4 4 4 4 4 4 4 4 4 4 4 5 5 5 5 5 6
2 2 2 2 2 2 2 2 2 2 2 2 2 2 2 2 2 2 2 2 2 3 3 3 3 3 3 3 3 3 3 3 3 3 4 4 4 4 4 4 5 5 5
1 2 2 2 2 2 2 2 1 1 2 2 1 1 1 1 1 1 1 2 2 2 2 3 3 3 3 3 3 3 3 3 3 3 3 3 3 4 4 4 4 4 4
1 1 1 1 1 1 1 1 1 1 1 1 1 1 1 1 1 1 1 1 1 2 2 2 2 2 2 2 2 2 2 2 2 2 2 3 3 3 3 3 3 4 4
0 0 1 1 1 1 1 1 1 0 0 0 0 0 0 0 0 0 1 1 1 1 1 1 2 2 2 2 2 2 2 2 2 2 2 2 2 2 2 2 2 3 3
-0 -0 -0 0 0 0 0 0 0 -0 -0 -0 -0 -0 -0 -0 -0 -0 0 0 1 1 1 1 1 1 1 1 1 1 1 1 1 1 1 1 1 2 2 2 2 2 2
-1 -1 -1 -0 -0 -0 -0 -0 -0 -1 -0 -0 -0 -1 -0 -0 -0 -1 -0 -0 0 0 0 0 1 1 1 1 1 1 1 1 1 1 1 1 1 1 1 1 1 1 1
-1 -1 -1 -1 -1 -1 -1 -1 -1 -1 -1 -1 -1 -1 -1 -1 -1 -1 -1 -0 -0 -0 -0 -0 0 0 0 0 0 0 0 0 1 1 1 1 1 1 1 1 1 1 1
-2 -1 -2 -2 -1 -1 -1 -1 -1 -1 -1 -1 -1 -1 -1 -1 -1 -1 -1 -1 -1 -1 -1 -1 -0 -0 -0 -0 -0 -0 0 0 0 0 0 0 0 0 0 0 0 0 0
-2 -2 -2 -2 -2 -2 -2 -2 -2 -1 -1 -2 -2 -2 -2 -2 -2 -2 -2 -2 -1 -1 -1 -1 -1 -1 -1 -1 -1 -1 -0 -0 -0 -0 -0 0 -0 0 0 0 0 0 0
-2 -2 -2 -2 -2 -2 -2 -2 -2 -2 -2 -2 -2 -2 -2 -2 -2 -2 -2 -2 -2 -2 -2 -2 -1 -1 -1 -1 -1 -1 -1 -1 -1 -1 -0 -0 -1 -0 -0 -0 -0 -0 -0
-3 -3 -3 -3 -3 -3 -3 -2 -2 -2 -2 -2 -2 -3 -3 -3 -3 -3 -2 -2 -2 -2 -2 -2 -2 -2 -2 -2 -2 -1 -1 -1 -1 -1 -1 -1 -1 -1 -1 -1 -1 -0 -0
-3 -3 -3 -3 -3 -3 -3 -3 -3 -3 -3 -3 -3 -3 -3 -3 -3 -3 -3 -3 -3 -3 -3 -2 -2 -2 -2 -2 -2 -2 -2 -2 -1 -1 -1 -1 -1 -1 -1 -1 -1 -1 -1
-3 -3 -3 -3 -3 -3 -3 -3 -3 -4 -4 -4 -4 -4 -4 -3 -3 -3 -3 -3 -3 -3 -3 -3 -3 -2 -2 -2 -2 -2 -2 -2 -2 -2 -2 -1 -1 -1 -1 -1 -1 -1 -1
-4 -4 -4 -4 -4 -4 -4 -4 -4 -4 -4 -4 -4 -4 -4 -4 -4 -4 -4 -3 -3 -3 -3 -3 -3 -3 -3 -3 -3 -2 -2 -2 -2 -2 -2 -2 -2 -1 -1 -1 -1 -1 -1
-4 -4 -4 -4 -4 -4 -4 -4 -4 -4 -4 -4 -4 -4 -4 -4 -4 -4 -4 -4 -3 -3 -3 -3 -3 -3 -3 -3 -3 -3 -3 -2 -2 -2 -2 -2 -2 -2 -2 -2 -2 -1 -1
-4 -4 -4 -5 -5 -5 -5 -5 -4 -4 -4 -4 -4 -4 -4 -4 -4 -4 -4 -4 -4 -3 -3 -3 -4 -4 -4 -4 -3 -3 -3 -3 -3 -2 -2 -2 -2 -2 -2 -2 -2 -2 -2
-4 -4 -5 -5 -5 -5 -5 -5 -5 -5 -4 -4 -4 -4 -4 -4 -4 -4 -4 -4 -3 -3 -4 -4 -4 -4 -4 -4 -4 -3 -3 -3 -3 -3 -3 -3 -3 -2 -2 -2 -2 -2 -2
-5 -5 -5 -5 -5 -6 -5 -5 -5 -5 -5 -5 -4 -4 -4 -4 -4 -4 -4 -4 -4 -4 -4 -4 -4 -4 -4 -4 -4 -4 -3 -3 -3 -3 -3 -3 -3 -3 -3 -3 -3 -3 -3
-5 -5 -5 -6 -6 -6 -5 -5 -5 -5 -5 -5 -5 -5 -5 -5 -4 -4 -4 -4 -4 -4 -4 -4 -4 -4 -4 -4 -4 -4 -4 -3 -3 -3 -3 -3 -3 -3 -3 -3 -3 -3 -3
-5 -5 -5 -6 -6 -5 -5 -5 -5 -5 -5 -5 -5 -5 -5 -5 -5 -5 -5 -5 -5 -5 -5 -4 -4 -4 -4 -4 -4 -4 -4 -4 -4 -4 -4 -4 -3 -3 -3 -3 -3 -3 -3
-5 -6 -6 -6 -6 -5 -5 -5 -5 -5 -5 -5 -5 -5 -5 -5 -5 -5 -5 -5 -5 -5 -5 -5 -4 -4 -4 -4 -4 -4 -4 -4 -4 -4 -4 -4 -4 -3 -3 -3 -3 -3 -3
-6 -6 -6 -6 -6 -6 -5 -5 -5 -5 -5 -5 -5 -5 -5 -5 -5 -5 -5 -5 -5 -5 -5 -5 -4 -4 -4 -4 -4 -4 -4 -4 -4 -4 -4 -4 -4 -4 -3 -3 -3 -3 -3
-6 -6 -6 -6 -6 -6 -6 -6 -6 -6 -6 -6 -6 -5 -5 -5 -5 -5 -5 -5 -5 -5 -5 -5 -4 -4 -4 -4 -4 -4 -4 -4 -4 -4 -4 -4 -4 -4 -3 -3 -3 -4 -4
-6 -6 -6 -6 -6 -6 -6 -6 -6 -6 -6 -6 -6 -6 -6 -6 -5 -5 -5 -5 -5 -5 -5 -5 -4 -4 -4 -4 -4 -4 -4 -4 -4 -4 -4 -4 -3 -3 -3 -3 -4 -4 -4
-6 -6 -6 -6 -6 -6 -6 -6 -6 -6 -6 -6 -6 -6 -6 -6 -6 -6 -5 -5 -5 -5 -5 -5 -5 -4 -4 -4 -4 -4 -4 -4 -4 -4 -4 -4 -3 -3 -3 -3 -4 -4 -4
Wind_Speed
3 2 2 3 3 2 2 2 2 2 2 2 2 2 2 2 3 3 3 3 3 3 3 3 4 4 3 3 3 4 4 4 7 5 3 2 3 4 4 5 5 5 7
3 2 2 1 1 1 1 1 1 2 2 2 2 2 2 2 3 3 3 3 3 3 4 4 4 3 4 3 3 4 4 4 5 6 4 3 3 4 3 3 3 5 5
3 2 2 1 1 1 1 1 1 1 1 1 1 2 2 2 2 3 3 3 4 4 4 4 4 4 4 4 4 3 3 4 4 5 5 3 3 2 2 3 3 3 4
4 3 2 2 2 1 1 1 1 1 1 1 1 2 2 2 2 2 3 3 3 3 4 4 4 4 5 5 4 4 3 3 3 4 5 3 3 2 2 2 2 2 2
4 3 3 2 2 2 1 1 1 1 2 1 1 2 2 2 2 2 2 3 3 3 4 4 4 5 6 5 4 4 3 3 3 4 4 3 3 2 2 1 2 2 2
3 4 3 3 3 3 2 2 2 2 1 1 1 1 2 2 3 4 4 3 3 3 3 4 4 4 5 6 6 5 4 4 4 4 4 5 4 3 2 2 1 1 2
3 4 3 3 3 3 3 3 2 2 2 1 1 1 2 2 4 5 6 4 3 3 3 3 4 3 4 3 4 4 4 5 6 5 5 6 5 4 3 3 2 2 3
3 3 3 3 3 3 3 3 3 2 2 2 2 2 2 3 5 5 6 4 3 3 3 3 2 3 3 3 2 2 3 4 5 4 4 5 4 3 4 4 3 2 2
3 3 3 2 3 3 3 3 3 3 3 3 2 2 2 3 5 5 5 2 2 3 3 3 3 2 3 3 2 2 3 4 3 3 4 4 4 4 3 3 3 2 2
3 3 2 2 2 2 3 3 3 3 3 3 3 3 2 2 5 6 5 1 2 2 3 3 4 3 3 3 2 2 3 3 2 2 2 3 3 2 3 3 4 3 2
3 3 2 2 2 2 2 2 3 3 3 3 3 3 3 3 5 6 6 2 2 2 3 3 3 4 4 4 3 3 4 3 2 2 2 2 2 2 2 2 3 4 3
3 3 3 3 2 2 2 2 2 2 3 3 3 4 3 3 5 5 7 5 4 2 3 3 3 4 5 5 4 3 4 3 2 2 2 2 2 2 1 1 1 2 3
3 3 3 3 2 2 2 2 2 2 2 2 3 3 3 3 4 6 6 6 6 3 3 4 5 5 5 4 4 5 4 2 1 1 2 2 2 2 1 1 0 1 1
2 3 3 3 3 3 2 2 2 2 2 2 2 3 3 3 3 3 3 3 4 4 3 4 5 5 4 4 4 4 3 1 1 1 1 1 0 1 1 1 0 0 1
2 2 3 3 2 3 3 3 3 2 2 2 2 2 3 3 5 7 5 3 3 3 3 2 3 3 3 3 3 3 3 2 2 1 1 1 0 0 0 1 1 1 0
2 2 2 2 2 2 2 4 6 5 6 6 6 5 4 5 7 8 8 7 6 5 3 2 2 3 3 3 3 3 3 3 2 1 1 0 0 1 1 0 1 1 0
1 2 2 2 2 2 3 3 4 5 7 7 7 8 7 7 7 8 7 8 7 6 4 3 2 2 3 3 2 2 3 3 2 1 1 1 1 1 1 1 1 1 0
2 2 2 2 2 2 2 2 2 3 4 5 6 7 8 8 8 8 8 7 6 6 3 3 3 3 3 2 2 2 2 2 2 2 2 1 1 1 1 0 0 0 0
2 1 2 2 2 2 2 2 2 3 3 3 4 5 7 7 8 8 8 4 3 4 4 3 3 3 3 2 2 2 2 2 2 2 2 2 1 1 1 1 0 0 1
1 3 3 2 2 2 2 2 2 2 3 3 3 4 5 5 4 5 5 4 3 3 3 3 3 3 3 2 2 2 2 2 2 2 2 1 1 0 0 0 0 0 0
1 1 3 2 2 2 2 2 2 2 2 3 3 4 6 4 4 4 4 4 3 3 4 4 4 3 3 2 2 2 2 2 2 2 2 1 1 0 0 0 0 0 0
0 1 1 1 1 2 2 2 2 2 2 3 3 4 6 4 3 3 4 4 4 3 3 3 3 3 3 3 2 2 2 2 2 2 1 1 1 1 1 1 1 1 1
0 0 1 1 1 2 2 2 2 2 2 3 3 3 4 4 4 4 4 4 4 4 4 3 3 3 4 3 3 2 2 2 2 1 1 1 1 1 1 1 1 1 1
1 0 0 1 1 1 1 2 2 2 2 2 3 3 3 3 4 4 4 4 4 4 4 4 4 4 6 5 3 3 2 2 2 1 0 0 0 1 1 1 1 1 1
1 1 0 0 0 0 1 1 2 2 2 2 3 3 3 3 4 4 4 4 4 4 5 4 4 4 6 6 4 4 4 4 2 1 1 1 1 1 1 1 2 2 2
1 0 0 0 0 0 0 1 1 2 2 2 2 3 3 3 3 4 3 3 4 4 4 4 5 6 6 5 5 5 5 4 3 2 1 1 2 1 2 2 2 2 2
Wind_Direction
288 279 273 257 244 239 246 247 224 224 229 230 236 239 251 262 255 243 249 251 251 265 270 258 262 265 260 252 242 240 238 238 254 269 255 259 244 246 269 272 267 261 257
291 291 293 279 238 233 247 254 235 227 234 233 245 250 256 267 263 256 258 264 257 263 275 273 273 273 271 265 247 240 244 245 244 258 262 252 249 239 249 256 275 275 266
323 327 337 340 306 274 269 264 255 245 234 246 244 253 260 261 270 272 262 266 263 262 267 268 271 268 269 268 262 253 250 255 249 246 256 252 256 239 251 268 268 272 280
343 345 352 350 334 297 280 266 280 274 249 258 275 268 262 267 276 276 281 283 282 282 280 275 273 267 264 260 259 247 242 249 249 247 250 255 260 244 233 256 287 282 279
349 353 349 349 352 349 353 355 324 303 310 304 296 293 296 294 280 278 283 284 281 287 289 281 276 276 275 268 259 243 234 242 250 249 253 259 256 245 248 240 258 301 304
348 344 347 357 4 4 359 13 8 339 311 315 318 305 301 304 311 315 302 284 280 277 286 292 290 289 288 288 280 269 246 237 239 249 260 254 255 251 238 225 227 285 287
351 346 350 2 9 3 355 14 11 349 341 343 316 304 300 302 322 324 324 316 297 290 288 290 294 302 306 297 297 297 283 269 253 248 253 260 251 238 220 222 222 233 257
350 347 354 10 11 1 358 6 356 348 345 343 333 334 329 327 339 341 341 336 322 305 295 287 288 298 302 302 297 297 284 277 265 254 250 258 252 230 211 214 215 229 276
348 346 354 7 11 358 360 355 349 354 350 344 339 354 344 333 344 349 347 334 333 324 317 319 309 296 312 312 304 286 290 289 289 269 269 269 262 248 220 197 202 203 257
340 335 336 359 18 359 352 348 350 354 348 346 353 352 338 326 339 348 348 344 337 330 329 325 323 324 316 302 287 273 277 285 289 298 287 290 280 259 238 218 207 209 222
335 341 358 6 9 358 0 352 353 355 355 357 351 342 334 332 340 346 347 351 337 331 327 326 327 337 329 316 295 275 271 275 269 265 267 269 263 242 222 219 210 208 208
350 359 4 3 0 5 13 357 0 1 2 358 359 351 345 336 342 344 349 349 345 325 315 314 323 336 328 325 320 320 312 300 270 256 253 255 247 242 237 228 236 217 222
3 3 2 2 4 2 7 2 359 359 358 352 356 351 341 340 340 347 350 349 346 336 317 331 335 337 334 333 341 337 331 306 271 263 248 255 248 234 216 205 70 29 330
5 358 358 6 5 5 360 356 350 340 343 347 346 340 332 330 333 336 337 335 339 337 330 334 344 350 355 356 352 349 347 313 278 270 265 275 267 215 210 212 203 131 12
355 356 356 360 0 0 358 351 340 329 329 331 322 317 321 326 335 344 344 341 345 342 342 349 1 3 4 359 356 356 349 347 341 336 339 331 318 330 165 161 163 145 110
2 359 353 353 354 358 0 1 4 0 1 357 349 341 334 339 340 348 355 359 6 13 12 17 7 357 349 347 348 347 348 350 352 9 360 333 17 62 43 60 131 134 140
356 342 341 351 355 357 359 2 357 2 9 10 7 4 2 359 359 5 12 16 22 28 30 20 1 347 342 344 341 338 343 346 348 359 4 359 23 51 74 71 65 50 75
357 355 358 349 350 350 348 344 345 351 351 353 0 6 8 10 11 16 21 23 22 21 16 7 354 348 346 344 340 341 346 352 360 7 10 15 35 46 61 36 66 86 51
1 356 353 353 353 350 347 352 357 357 354 348 349 0 9 12 17 21 22 25 14 359 356 355 350 345 342 341 339 341 345 352 1 9 11 12 29 47 41 27 42 77 160
7 6 5 5 4 1 359 359 0 2 358 357 358 353 353 2 11 9 11 11 5 349 345 345 342 339 339 337 337 342 352 360 4 10 6 1 13 46 53 18 8 249 223
2 360 7 10 6 356 355 353 352 355 1 4 355 350 358 5 5 0 358 356 350 342 339 338 337 339 340 341 344 350 358 357 359 1 356 348 350 6 16 39 23 35 122
43 359 1 8 360 358 0 358 355 2 9 5 353 354 5 12 4 357 353 348 345 344 340 340 336 338 339 340 339 341 345 345 343 348 353 348 353 22 36 55 49 45 100
118 47 19 7 2 8 14 7 6 11 8 3 358 357 358 1 359 357 350 345 348 351 353 353 348 348 348 347 342 335 320 309 303 301 321 343 358 23 43 66 74 79 103
131 117 74 20 14 18 12 6 6 5 3 1 359 355 352 351 350 349 346 347 350 351 353 352 349 347 347 347 342 338 329 321 324 329 334 10 355 36 70 72 70 79 88
135 140 143 138 347 8 20 10 3 360 358 354 351 348 347 348 347 346 346 348 349 349 350 350 351 349 344 341 342 345 346 349 354 30 70 97 103 95 96 93 92 91 93
143 152 152 172 220 359 9 352 347 348 345 341 339 337 336 339 340 341 343 348 350 349 348 348 347 346 343 344 345 351 356 4 14 21 71 102 108 101 97 95 93 93 95
Height
1439 1438 1437 1436 1436 1435 1434 1433 1433 1432 1432 1432 1432 1432 1432 1432 1432 1432 1432 1432 1432 1432 1432 1432 1432 1433 1433 1434 1434 1434 1434 1434 1433 1431 1433 1433 1433 1433 1433 1434 1434 1433 1434
1436 1435 1434 1433 1432 1431 1431 1430 1430 1429 1429 1429 1428 1428 1428 1428 1428 1428 1428 1428 1428 1428 1428 1428 1428 1428 1428 1429 1429 1429 1428 1428 1428 1427 1427 1428 1428 1428 1428 1428 1428 1428 1429
1434 1432 1431 1430 1429 1428 1427 1427 1427 1426 1426 1425 1425 1425 1425 1425 1425 1425 1425 1425 1425 1425 1425 1424 1424 1424 1424 1424 1424 1423 1423 1423 1423 1423 1422 1423 1423 1424 1423 1423 1423 1424 1424
1431 1430 1428 1427 1426 1426 1425 1424 1424 1423 1422 1422 1422 1422 1423 1422 1422 1422 1422 1422 1422 1421 1421 1421 1420 1420 1420 1420 1419 1419 1419 1419 1419 1419 1418 1418 1419 1419 1419 1419 1419 1419 1420
1430 1428 1427 1426 1425 1424 1422 1422 1421 1421 1420 1420 1420 1420 1420 1419 1419 1419 1419 1419 1419 1418 1417 1417 1416 1416 1416 1415 1415 1414 1414 1414 1414 1414 1414 1414 1414 1415 1415 1415 1415 1415 1416
1429 1427 1425 1424 1423 1421 1420 1420 1419 1419 1419 1418 1417 1417 1417 1417 1417 1417 1417 1416 1415 1415 1413 1412 1412 1412 1411 1411 1411 1410 1410 1410 1410 1410 1410 1410 1410 1411 1412 1412 1412 1412 1412
1427 1426 1424 1423 1421 1420 1419 1418 1417 1417 1417 1416 1416 1415 1415 1415 1415 1415 1414 1414 1412 1411 1410 1409 1408 1407 1407 1406 1406 1405 1406 1407 1408 1408 1408 1407 1407 1408 1409 1409 1409 1409 1410
1426 1425 1423 1421 1420 1419 1418 1417 1416 1416 1415 1414 1414 1413 1413 1412 1412 1412 1411 1411 1410 1409 1407 1406 1405 1404 1404 1403 1402 1402 1402 1403 1404 1404 1404 1404 1404 1404 1405 1406 1406 1407 1407
1425 1423 1422 1421 1419 1418 1417 1416 1416 1415 1414 1413 1412 1411 1411 1410 1410 1409 1409 1408 1407 1406 1405 1404 1403 1402 1401 1401 1400 1399 1399 1400 1400 1401 1400 1400 1401 1401 1402 1403 1403 1404 1403
1423 1422 1421 1420 1418 1417 1416 1415 1415 1414 1413 1412 1411 1410 1409 1408 1407 1407 1407 1406 1405 1403 1402 1402 1401 1400 1399 1399 1398 1397 1397 1396 1397 1397 1397 1397 1397 1398 1398 1399 1399 1400 1400
1422 1421 1420 1418 1417 1416 1415 1415 1414 1413 1412 1410 1409 1408 1408 1407 1405 1405 1405 1404 1402 1401 1400 1399 1398 1397 1397 1396 1396 1395 1394 1394 1394 1393 1393 1393 1394 1394 1394 1396 1396 1397 1397
1422 1420 1419 1417 1416 1416 1415 1414 1413 1412 1411 1409 1408 1407 1406 1405 1404 1403 1403 1402 1401 1400 1398 1397 1396 1395 1395 1394 1393 1392 1392 1391 1391 1390 1390 1390 1391 1391 1392 1393 1393 1394 1394
1421 1419 1418 1417 1416 1415 1414 1413 1412 1411 1410 1408 1407 1405 1405 1404 1403 1402 1401 1400 1399 1398 1397 1396 1395 1394 1392 1391 1390 1389 1389 1388 1388 1387 1387 1388 1388 1389 1389 1390 1391 1391 1392
1419 1418 1417 1416 1415 1414 1413 1412 1411 1410 1408 1407 1406 1405 1404 1403 1402 1400 1399 1398 1397 1396 1395 1394 1393 1392 1390 1389 1388 1387 1386 1386 1386 1385 1385 1385 1386 1386 1387 1387 1388 1389 1390
1419 1417 1416 1415 1414 1413 1412 1411 1410 1409 1408 1407 1406 1405 1403 1401 1401 1400 1399 1397 1395 1394 1393 1392 1391 1390 1389 1387 1386 1385 1385 1384 1384 1384 1383 1384 1384 1384 1385 1385 1386 1387 1387
1418 1417 1416 1414 1413 1412 1411 1410 1409 1409 1408 1407 1406 1405 1403 1402 1400 1398 1397 1396 1394 1393 1392 1391 1390 1389 1388 1387 1386 1385 1384 1383 1383 1382 1382 1382 1382 1383 1383 1384 1385 1385 1385
1417 1416 1415 1413 1412 1411 1410 1409 1408 1408 1407 1406 1405 1404 1402 1401 1399 1397 1396 1395 1394 1393 1392 1391 1390 1389 1388 1387 1385 1384 1383 1383 1382 1382 1381 1381 1381 1382 1382 1382 1383 1383 1384
1417 1416 1414 1413 1412 1411 1410 1409 1408 1406 1405 1405 1404 1403 1402 1400 1399 1397 1396 1395 1393 1392 1391 1391 1390 1388 1387 1386 1385 1384 1383 1383 1382 1381 1381 1381 1381 1381 1381 1381 1382 1382 1383
1416 1415 1414 1412 1412 1411 1410 1409 1408 1407 1406 1405 1404 1403 1402 1400 1399 1397 1396 1395 1394 1393 1392 1391 1390 1388 1387 1386 1385 1384 1383 1382 1382 1381 1381 1380 1380 1380 1380 1380 1381 1381 1382
1416 1415 1414 1412 1412 1411 1410 1409 1408 1407 1405 1404 1403 1402 1401 1400 1398 1397 1396 1395 1394 1393 1392 1391 1389 1388 1387 1386 1385 1384 1383 1382 1381 1381 1380 1380 1380 1380 1380 1380 1380 1380 1381
1416 1415 1414 1413 1412 1411 1410 1409 1408 1406 1405 1405 1404 1403 1402 1401 1399 1397 1396 1395 1394 1393 1392 1391 1389 1388 1387 1386 1385 1383 1382 1382 1381 1381 1380 1380 1380 1380 1380 1380 1380 1380 1380
1415 1414 1413 1412 1412 1411 1410 1409 1408 1407 1406 1405 1404 1403 1402 1401 1400 1398 1397 1395 1394 1393 1392 1391 1389 1388 1387 1386 1384 1383 1382 1381 1381 1381 1380 1380 1380 1379 1379 1379 1379 1379 1380
1415 1414 1413 1412 1411 1411 1410 1409 1408 1407 1407 1406 1405 1403 1402 1401 1400 1398 1397 1396 1394 1393 1392 1391 1390 1389 1387 1386 1385 1384 1383 1382 1381 1381 1380 1379 1379 1379 1379 1379 1379 1379 1379
1414 1413 1412 1412 1411 1410 1410 1409 1408 1408 1407 1406 1405 1404 1402 1401 1400 1398 1397 1396 1395 1394 1393 1391 1390 1389 1388 1387 1385 1384 1383 1382 1382 1381 1380 1380 1380 1379 1379 1379 1380 1380 1380
1413 1412 1412 1411 1410 1410 1409 1409 1408 1407 1407 1406 1405 1404 1403 1401 1400 1399 1398 1397 1395 1394 1393 1392 1391 1390 1388 1387 1386 1384 1383 1382 1382 1381 1381 1381 1380 1380 1380 1380 1381 1381 1381
1412 1412 1411 1411 1410 1409 1409 1408 1408 1407 1406 1405 1405 1404 1403 1402 1401 1399 1398 1397 1396 1395 1394 1392 1391 1390 1389 1387 1386 1385 1384 1383 1382 1382 1382 1382 1381 1381 1381 1381 1382 1382 1383